#timestamp,LO_Frequency,Hit,StdDev 
1554213615.4,286047001.8,N
1554213635.2,286047004.4,N
1554213655.1,286047001.3,N
1554213656.0,286047001.3,N
1554213675.8,286047001.8,N
1554213695.6,286047002.2,N
1554213715.4,286047004.3,N
1554213735.3,286047001.7,N
1554213755.1,286047001.8,N
1554213775.9,286047003.3,N
1554213795.7,286047004.7,Y
1554213815.5,286047004.0,P
1554213835.4,286047004.1,P
1554213855.2,286047001.8,N
1554213875.0,286047002.3,N
1554213875.9,286047002.3,N
1554213895.8,286046999.7,N
1554213915.6,286047004.4,Y
1554213935.5,286046998.2,P
1554213955.3,286046999.5,N
1554213975.1,286046996.9,N
1554213995.9,286046996.8,N
1554214015.7,286046997.0,N
1554214035.6,286046998.0,N
1554214055.4,286046995.0,N
1554214075.2,286046996.8,N
1554214095.1,286046997.1,N
1554214096.0,286046997.1,N
1554214115.8,286046996.7,N
1554214135.6,286046997.3,N
1554214155.5,286046995.0,N
1554214175.3,286046997.7,N
1554214195.2,286046997.4,N
1554214215.9,286046997.2,N
1554214235.7,286046996.8,N
1554214255.6,286046999.2,N
1554214275.4,286046997.2,N
1554214295.2,286046996.8,N
1554214315.1,286046996.5,N
1554214316.0,286046996.5,N
1554214335.8,286046996.6,N
1554214355.7,286046996.7,N
1554214375.5,286046999.2,N
1554214395.3,286046999.3,N
1554214415.2,286046998.3,N
1554214435.9,286046998.8,N
1554214455.7,286047000.7,N
1554214475.6,286047000.8,N
1554214495.4,286046998.5,N
1554214515.3,286047000.0,N
1554214535.1,286047000.2,N
1554214536.0,286047000.2,N
1554214555.8,286047000.0,N
1554214575.7,286047000.5,N
1554214595.5,286046998.5,N
1554214615.4,286047000.8,N
1554214635.2,286047001.0,N
1554214655.0,286046998.2,N
1554214655.9,286046998.2,N
1554214675.8,286046998.9,N
1554214695.6,286046996.7,N
1554214715.4,286046997.0,N
1554214735.3,286046999.3,N
1554214755.1,286046998.9,N
1554214775.9,286046998.8,N
1554214795.7,286046999.5,N
1554214845.6,286046999.5,E
1554214855.5,286047001.1,N
1554214875.3,286047000.4,P
1554214895.1,286046998.8,P
1554214915.9,286046998.9,N
1554214935.7,286046998.5,N
1554214955.6,286047000.6,N
1554214975.4,286047001.2,N
1554214995.2,286046999.1,N
1554215015.1,286046998.8,N
1554215016.0,286046998.8,N
1554215035.8,286046999.6,N
1554215055.7,286046995.1,Y
1554215075.5,286046997.3,P
1554215095.3,286046996.7,N
1554215115.2,286046999.1,N
1554215135.0,286046998.9,N
1554215135.9,286046998.9,N
1554215155.7,286046998.2,N
1554215175.6,286046998.1,N
1554215195.4,286046998.1,N
1554215215.3,286046999.9,N
1554215235.1,286047000.9,N
1554215236.0,286047000.9,N
1554215255.8,286047001.1,N
1554215275.7,286047000.9,N
1554215295.5,286047000.2,N
1554215315.3,286047002.7,N
1554215335.2,286047000.3,N
1554215355.0,286046999.7,N
1554215355.9,286046999.7,N
1554215375.8,286047000.0,N
1554215395.6,286047000.0,N
1554215415.4,286046998.7,N
1554215435.3,286047000.8,N
1554215455.1,286046999.8,N
1554215475.8,286046999.9,N
1554215495.7,286047000.6,N
1554215515.5,286046999.0,N
1554215535.4,286046999.2,N
1554215555.2,286046999.2,N
1554215575.0,286046997.4,N
1554215575.9,286046997.4,N
1554215595.8,286046997.8,N
1554215615.6,286046997.9,N
1554215635.4,286046997.5,N
1554215655.3,286046997.0,N
1554215675.1,286046996.5,N
1554215695.9,286046998.4,N
1554215715.7,286046999.0,N
1554215735.5,286046999.5,N
1554215755.4,286046998.4,N
1554215775.2,286047000.4,N
1554215795.0,286047002.8,N
1554215795.9,286047002.8,N
1554215815.8,286046998.3,N
1554215835.6,286047000.7,N
1554215855.5,286046999.3,N
1554215875.3,286046998.8,N
1554215895.1,286046998.8,N
1554215915.9,286047001.2,N
1554215935.7,286047001.2,N
1554215955.5,286047001.2,N
1554215975.4,286047001.0,N
1554215995.2,286046998.3,N
1554216015.1,286046998.4,N
1554216016.0,286046998.4,N
1554216035.8,286046999.2,N
1554216055.6,286046999.6,N
1554216075.5,286046997.0,N
1554216095.3,286046998.9,N
1554216115.1,286046998.9,N
1554216135.9,286046998.6,N
1554216155.7,286046998.1,N
1554216175.6,286046998.4,N
1554216195.4,286047001.1,N
1554216215.2,286047000.2,N
1554216235.1,286046999.7,N
1554216236.0,286046999.7,N
1554216255.8,286047002.2,N
1554216275.7,286047000.1,N
1554216295.5,286047000.3,N
1554216315.3,286046998.5,N
1554216335.2,286047000.9,N
1554216355.0,286047001.1,N
1554216355.9,286047001.1,N
1554216375.7,286046996.5,N
1554216395.6,286046998.3,N
1554216415.4,286047000.7,N
1554216435.3,286047000.3,N
1554216455.1,286046998.1,N
1554216475.8,286047000.4,N
1554216495.7,286047000.7,N
1554216515.0,286046998.1,N
1554216515.9,286046998.1,N
1554216535.8,286047000.7,N
1554216555.6,286047001.1,N
1554216575.5,286046998.2,N
1554216595.3,286047000.2,N
1554216615.1,286047000.4,N
1554216635.9,286047000.6,N
1554216655.7,286047000.5,N
1554216675.6,286047000.4,N
1554216695.4,286046999.3,N
1554216715.2,286046996.5,N
1554216735.1,286046996.5,N
1554216736.0,286046996.5,N
1554216755.8,286046998.5,N
1554216775.7,286046998.2,N
1554216795.5,286046998.6,N
1554216815.3,286046999.4,N
1554216835.2,286047000.9,N
1554216855.0,286046999.9,N
1554216855.9,286046999.9,N
1554216875.7,286047000.7,N
1554216895.6,286046998.7,N
1554216915.4,286046998.7,N
1554216935.3,286046998.5,N
1554216955.1,286046998.4,N
1554216956.0,286046998.4,N
1554216975.8,286046999.2,N
1554216995.7,286046998.3,N
1554217015.5,286047000.8,N
1554217035.4,286047000.2,N
1554217055.2,286047002.6,N
1554217075.0,286047002.3,N
1554217075.9,286047002.3,N
1554217095.8,286047000.8,N
1554217115.6,286046998.6,N
1554217135.4,286046998.6,N
1554217155.3,286046999.2,N
1554217175.1,286046999.4,N
1554217195.9,286046998.7,N
